[[{"header":{"parameterUnit":"m.s-1","parameterCategory":1,"la1":30.2991,"la2":30.254,"lo1":-89.0895,"lo2":-89.0444,"dy":0.0017,"dx":0.0017,"nx":28,"ny":28,"refTime":"2023-11-20T09:00:00:Z","depth":0,"parameterNumber":2,"parameterNumberName":"U-component_of_WINDS"},"data":[0,0,0,0,0,0,0,0,0,0,0,0,0,0,0,0,0,0,0,0,0,0,0,0,0,0,0,0,0,0,0,0,0,0,0,0,0,0,0,0,0,0,0,0,0,0,0,0,0,0,0,0,0,0,0,0,0,0,2.5246,2.5246,0,2.5196,2.5195,2.5195,2.5137,2.5136,2.5135,2.5134,2.5079,2.5079,2.5078,0,0,0,0,0,0,0,0,0,0,0,0,0,2.5291,2.529,2.5246,2.5246,2.5245,2.5196,2.5195,2.5195,2.5137,2.5136,2.5135,2.5134,2.5079,2.5079,2.5078,0,0,0,0,0,0,0,0,0,0,0,0,0,2.5259,2.529,2.5247,2.5211,2.5207,2.5196,2.5195,2.5195,2.5137,2.5136,2.5135,2.5133,2.508,2.5079,2.5078,2.5098,0,0,2.5075,2.5074,0,0,0,0,0,0,0,0,2.5261,2.5258,2.5216,2.5213,2.5209,2.5171,2.5191,2.5162,2.5137,2.5163,2.5134,2.5133,2.5111,2.5107,2.51,2.5095,2.5093,2.5075,2.5074,2.5074,2.5073,0,0,0,0,0,0,0,2.5263,2.5259,2.5226,2.5216,2.5211,2.5196,2.519,2.5185,2.5145,2.5161,2.5157,2.5152,2.5108,2.5101,2.5099,2.5092,2.5075,2.5074,2.5073,2.5073,2.5101,2.5103,0,0,0,0,0,0,2.5271,2.5262,2.5228,2.5225,2.5232,2.5197,2.519,2.5185,2.5145,2.5138,2.5153,2.5149,2.5104,2.51,2.5097,2.5118,2.5074,2.5073,2.5072,2.51,2.5102,2.5103,0,0,0,0,0,0,2.5272,2.5269,2.523,2.5242,2.5236,2.5197,2.5192,2.5184,2.5177,2.5139,2.5131,2.5153,2.5103,2.5098,2.5098,2.5115,2.5072,2.5071,2.5098,2.5101,2.5102,2.516,0,0,0,0,0,0,2.5274,2.527,2.5277,2.5243,2.5236,2.5233,2.5193,2.5184,2.5176,2.5171,2.5137,2.513,2.5101,2.51,2.5097,2.5113,2.5071,2.5097,2.5099,2.5102,2.5156,2.5164,2.517,0,0,0,0,0,2.5276,2.5294,2.5278,2.5274,2.5244,2.5234,2.523,2.5197,2.5178,2.5185,2.516,2.5131,2.5114,2.5101,2.5097,2.5112,2.5096,2.5099,2.5102,2.5153,2.5162,2.517,0,0,0,0,0,0,2.533,2.5289,2.527,2.5278,2.5261,2.5225,2.5232,2.5208,2.5194,2.519,2.5149,2.5142,2.5147,2.513,2.5116,2.513,2.5101,2.5103,2.5141,2.5149,2.5156,2.516,2.507,0,0,0,0,0,2.5343,2.5339,2.5303,2.5314,2.5306,2.5271,2.5266,2.5242,2.5222,2.5213,2.5189,2.5169,2.5159,2.5153,2.5142,2.5154,2.5146,2.5163,2.517,2.5176,2.5178,2.5184,2.5191,2.5113,2.5113,2.5113,0,0,2.5369,2.5347,2.5346,2.5324,2.5308,2.5304,2.5265,2.5262,2.5259,2.5212,2.5212,2.5193,2.5169,2.5176,2.5177,2.5161,2.5198,2.5179,2.5184,2.5183,2.5188,2.5195,2.5202,2.5115,2.5115,2.5115,0,0,2.5416,2.5399,2.5406,2.5391,2.5367,2.5344,2.5346,2.5314,2.53,2.5299,2.5265,2.526,2.5244,2.5228,2.5218,2.5261,2.5234,2.5259,2.5294,2.53,2.5306,2.5311,2.5327,2.5333,2.5261,2.5262,2.5262,0,2.5451,2.5446,2.5412,2.5413,2.5404,2.5364,2.5371,2.5357,2.533,2.5325,2.5308,2.5288,2.5269,2.5272,2.5283,2.5276,2.5276,2.5262,2.5308,2.5313,2.5317,2.5332,2.5338,2.5265,2.5264,2.5264,2.5264,0,2.5491,2.5487,2.5496,2.5473,2.5465,2.5469,2.5436,2.5433,2.5411,2.5389,2.5389,2.5365,2.5349,2.5348,2.5325,2.5348,2.5339,2.5316,2.5285,2.5329,2.5341,2.5347,2.5269,2.5268,2.5267,2.5266,0,0,2.5568,2.5528,2.5532,2.5522,2.5493,2.549,2.5492,2.5477,2.5475,2.5459,2.5459,2.5448,2.5427,2.5416,2.5391,2.5397,2.5434,2.5373,2.5372,2.5385,2.5457,2.5475,2.5481,2.5416,2.5417,2.5418,2.5459,0,2.5609,2.5611,2.5582,2.5592,2.5589,2.5551,2.5553,2.5536,2.5517,2.5511,2.5489,2.5482,2.5455,2.5448,2.5452,2.5428,2.5447,2.5425,2.5416,2.5416,2.5422,2.5488,2.5506,2.5546,2.5464,2.5465,2.5465,0,2.5657,2.5645,2.5655,2.5628,2.5625,2.5628,2.5613,2.5608,2.5588,2.5573,2.5562,2.5535,2.5535,2.5508,2.5507,2.5493,2.5487,2.5476,2.5476,2.5473,2.5443,2.5487,2.5558,2.5564,2.5473,2.5472,2.5472,0,2.5712,2.5698,2.5703,2.5695,2.5663,2.5666,2.5653,2.5632,2.5626,2.5612,2.5608,2.5595,2.5587,2.5578,2.5548,2.553,2.5551,2.5521,2.5539,2.554,2.5544,2.5544,2.5615,2.5542,2.5542,2.5542,2.5541,0,2.5761,2.5768,2.5728,2.573,2.5738,2.5705,2.5713,2.5696,2.5678,2.5677,2.5644,2.5643,2.5604,2.5599,2.5576,2.5579,2.5576,2.5564,2.5558,2.5567,2.5569,2.5562,2.5558,2.5543,2.5543,2.5542,2.5542,0,2.5823,2.5796,2.5799,2.577,2.5762,2.5769,2.5744,2.5745,2.5725,2.5724,2.5721,2.5689,2.5681,2.5652,2.5636,2.5621,2.5632,2.562,2.5639,2.5635,2.5655,2.5653,2.5724,2.5731,2.5654,2.5655,2.5655,0,2.5855,2.5861,2.5833,2.583,2.5819,2.5815,2.5809,2.5777,2.5772,2.5751,2.5754,2.5745,2.5735,2.5725,2.57,2.5688,2.5675,2.5701,2.5673,2.5682,2.5675,2.5675,2.5676,2.5706,2.5707,2.5708,2.5709,0,2.5916,2.5903,2.5896,2.5885,2.5879,2.5868,2.5856,2.5855,2.582,2.5816,2.5809,2.5802,2.5787,2.5778,2.5763,2.5748,2.5723,2.5718,2.5722,2.5731,2.5742,2.5736,2.5655,2.5716,2.5716,2.5715,2.5715,2.5714,2.5964,2.5967,2.5949,2.5942,2.593,2.5919,2.592,2.59,2.5894,2.5881,2.5862,2.5858,2.5839,2.5816,2.5804,2.58,2.5785,2.579,2.5791,2.5793,2.5798,2.5744,2.5797,2.5796,2.5796,2.5796,2.5796,0,2.6022,2.6009,2.6004,2.5988,2.5983,2.5962,2.5947,2.5944,2.5941,2.5926,2.5918,2.591,2.5902,2.5877,2.5866,2.5867,2.5855,2.5865,2.5864,2.5862,2.5811,2.5809,2.5875,2.5875,2.5875,2.5875,2.5875,2.5875,2.6052,2.6057,2.6042,2.6041,2.6027,2.6023,2.6017,2.6007,2.5995,2.5989,2.5982,2.5966,2.5948,2.5935,2.5926,2.5919,2.5917,2.5931,2.592,2.5873,2.5865,2.5858,2.5856,2.593,2.593,2.597,2.5971,2.5971]},{"header":{"parameterUnit":"m.s-1","parameterCategory":1,"la1":30.2991,"la2":30.254,"lo1":-89.0895,"lo2":-89.0444,"dy":0.0017,"dx":0.0017,"nx":28,"ny":28,"refTime":"2023-11-20T09:00:00:Z","depth":0,"parameterNumber":3,"parameterNumberName":"V-component_of_WINDS"},"data":[0,0,0,0,0,0,0,0,0,0,0,0,0,0,0,0,0,0,0,0,0,0,0,0,0,0,0,0,0,0,0,0,0,0,0,0,0,0,0,0,0,0,0,0,0,0,0,0,0,0,0,0,0,0,0,0,0,0,-6.3886,-6.3887,0,-6.3944,-6.3944,-6.3945,-6.3875,-6.3873,-6.387,-6.3868,-6.3922,-6.3926,-6.393,0,0,0,0,0,0,0,0,0,0,0,0,0,-6.3712,-6.3716,-6.3886,-6.3887,-6.3888,-6.3944,-6.3944,-6.3945,-6.3876,-6.3872,-6.3869,-6.3866,-6.3921,-6.3926,-6.393,0,0,0,0,0,0,0,0,0,0,0,0,0,-6.378,-6.3717,-6.3886,-6.386,-6.3858,-6.3943,-6.3944,-6.3945,-6.3876,-6.3872,-6.3868,-6.3865,-6.392,-6.3925,-6.3931,-6.4044,0,0,-6.3949,-6.3951,0,0,0,0,0,0,0,0,-6.3777,-6.3787,-6.3863,-6.3862,-6.386,-6.3898,-6.3903,-6.3978,-6.3877,-6.3869,-6.3867,-6.3863,-6.3917,-6.3923,-6.3942,-6.4046,-6.4049,-6.3949,-6.3953,-6.3955,-6.3957,0,0,0,0,0,0,0,-6.3772,-6.3784,-6.3909,-6.3864,-6.3862,-6.3844,-6.3849,-6.3917,-6.3914,-6.387,-6.3865,-6.3873,-6.3916,-6.3937,-6.3943,-6.405,-6.3949,-6.3954,-6.3958,-6.396,-6.425,-6.4254,0,0,0,0,0,0,-6.3771,-6.378,-6.3907,-6.391,-6.3808,-6.385,-6.3856,-6.389,-6.3913,-6.3913,-6.3876,-6.3869,-6.3929,-6.3936,-6.3945,-6.4079,-6.3955,-6.3961,-6.3964,-6.4246,-6.4251,-6.4255,0,0,0,0,0,0,-6.3767,-6.3783,-6.3905,-6.3844,-6.3858,-6.3857,-6.3896,-6.3893,-6.3914,-6.3918,-6.3917,-6.3898,-6.3926,-6.3936,-6.402,-6.408,-6.3963,-6.3968,-6.4241,-6.4247,-6.4253,-6.4348,0,0,0,0,0,0,-6.3763,-6.3782,-6.3826,-6.3846,-6.3862,-6.3981,-6.3899,-6.3897,-6.3925,-6.3916,-6.3939,-6.3938,-6.3924,-6.4012,-6.4026,-6.4086,-6.3973,-6.4235,-6.4244,-6.4251,-6.434,-6.4357,-6.4372,0,0,0,0,0,-6.3757,-6.3849,-6.3828,-6.3844,-6.3917,-6.3984,-6.3993,-6.3976,-6.393,-6.3973,-6.3976,-6.3938,-6.4071,-6.4021,-6.4036,-6.4099,-6.4232,-6.4241,-6.4251,-6.4333,-6.4354,-6.4372,0,0,0,0,0,0,-6.3834,-6.3851,-6.3828,-6.393,-6.3957,-6.3972,-6.4027,-6.3998,-6.4037,-6.4028,-6.4003,-6.4008,-6.4098,-6.4106,-6.405,-6.4209,-6.4144,-6.4157,-6.4201,-6.4221,-6.4237,-6.4233,-6.3978,0,0,0,0,0,-6.3864,-6.3919,-6.393,-6.4018,-6.4033,-6.4028,-6.4056,-6.4041,-6.4066,-6.4077,-6.4085,-6.4111,-6.4158,-6.419,-6.4233,-6.4341,-6.4344,-6.4391,-6.4407,-6.442,-6.4432,-6.4489,-6.451,-6.4287,-6.4287,-6.4286,0,0,-6.3924,-6.394,-6.3976,-6.4035,-6.4053,-6.4109,-6.4038,-6.41,-6.4141,-6.4086,-6.4166,-6.4173,-6.4199,-6.4296,-6.4338,-6.4306,-6.4494,-6.4432,-6.4443,-6.4447,-6.4501,-6.4523,-6.4541,-6.4293,-6.4292,-6.4291,0,0,-6.4064,-6.4081,-6.4158,-6.4178,-6.4208,-6.4204,-6.4222,-6.4243,-6.4246,-6.4326,-6.4286,-6.4334,-6.4416,-6.4437,-6.4458,-6.4607,-6.4573,-6.4621,-6.4705,-6.4762,-6.478,-6.4795,-6.4848,-6.4868,-6.4633,-6.4633,-6.4633,0,-6.4135,-6.4219,-6.42,-6.4266,-6.4293,-6.4247,-6.4324,-6.4344,-6.4386,-6.4405,-6.4368,-6.4471,-6.4485,-6.4586,-6.4622,-6.4641,-6.4661,-6.4619,-6.4779,-6.4794,-6.4808,-6.4859,-6.4879,-6.4639,-6.4638,-6.4638,-6.4637,0,-6.4306,-6.4365,-6.4423,-6.4467,-6.45,-6.4571,-6.4561,-6.4597,-6.4578,-6.4578,-6.4661,-6.4676,-6.4723,-6.4746,-6.4727,-6.4844,-6.4823,-6.4783,-6.4716,-6.4836,-6.4883,-6.4902,-6.4647,-6.4645,-6.4643,-6.4642,0,0,-6.4495,-6.4528,-6.455,-6.457,-6.4599,-6.4644,-6.4712,-6.476,-6.4791,-6.4821,-6.4878,-6.4949,-6.4913,-6.4937,-6.492,-6.497,-6.5087,-6.4924,-6.4924,-6.4954,-6.5217,-6.5248,-6.527,-6.5065,-6.5069,-6.5072,-6.5215,0,-6.4635,-6.4756,-6.4741,-6.4856,-6.4911,-6.4868,-6.4928,-6.4952,-6.4954,-6.4999,-6.5,-6.5051,-6.4999,-6.5013,-6.506,-6.5063,-6.514,-6.5052,-6.5117,-6.512,-6.5113,-6.5295,-6.5327,-6.5462,-6.5233,-6.5236,-6.5239,0,-6.4815,-6.4854,-6.4976,-6.4998,-6.502,-6.5074,-6.5116,-6.5161,-6.5187,-6.5184,-6.5212,-6.5187,-6.5255,-6.5187,-6.528,-6.5221,-6.5246,-6.5252,-6.5257,-6.5262,-6.5187,-6.5306,-6.5504,-6.5525,-6.5267,-6.5265,-6.5263,0,-6.4942,-6.5025,-6.5108,-6.5126,-6.5154,-6.5193,-6.5206,-6.5228,-6.5258,-6.5295,-6.5313,-6.5357,-6.5381,-6.5414,-6.5401,-6.5353,-6.5497,-6.5428,-6.5496,-6.5497,-6.5529,-6.5527,-6.5735,-6.5545,-6.5544,-6.5544,-6.5544,0,-6.5101,-6.5177,-6.5166,-6.5217,-6.5301,-6.5283,-6.5365,-6.5373,-6.5393,-6.5445,-6.5409,-6.5458,-6.5438,-6.5485,-6.5475,-6.5554,-6.5564,-6.5564,-6.556,-6.5568,-6.5568,-6.5584,-6.5574,-6.5549,-6.5548,-6.5547,-6.5546,0,-6.5257,-6.5253,-6.5341,-6.5361,-6.5367,-6.5428,-6.5444,-6.5492,-6.5491,-6.5557,-6.5571,-6.5569,-6.5623,-6.5613,-6.5672,-6.5665,-6.5764,-6.5748,-6.5756,-6.5752,-6.5822,-6.5815,-6.6047,-6.6077,-6.5867,-6.5869,-6.5871,0,-6.5359,-6.5417,-6.5443,-6.5476,-6.5492,-6.5545,-6.5576,-6.5559,-6.5592,-6.5627,-6.5671,-6.5721,-6.5761,-6.5849,-6.5852,-6.5897,-6.5882,-6.596,-6.5889,-6.5894,-6.5884,-6.5881,-6.5887,-6.5975,-6.5977,-6.5979,-6.5981,0,-6.554,-6.5536,-6.5582,-6.5628,-6.5666,-6.5701,-6.5732,-6.5761,-6.5747,-6.5786,-6.5841,-6.5872,-6.5933,-6.5984,-6.6026,-6.6037,-6.6007,-6.6003,-6.6022,-6.603,-6.6032,-6.6032,-6.5795,-6.5998,-6.5996,-6.5995,-6.5994,-6.5993,-6.5673,-6.5722,-6.5749,-6.5802,-6.5824,-6.5855,-6.5901,-6.5907,-6.5953,-6.6002,-6.5989,-6.6052,-6.6076,-6.613,-6.6147,-6.6195,-6.6166,-6.6192,-6.6199,-6.6206,-6.6215,-6.6024,-6.6202,-6.6202,-6.6201,-6.6201,-6.62,0,-6.5853,-6.5868,-6.5917,-6.5963,-6.6005,-6.5974,-6.6007,-6.6043,-6.61,-6.6126,-6.6166,-6.623,-6.6279,-6.6287,-6.6333,-6.637,-6.6357,-6.6383,-6.638,-6.6384,-6.6238,-6.6217,-6.6393,-6.6393,-6.6392,-6.6392,-6.6392,-6.6392,-6.5951,-6.6034,-6.6033,-6.6126,-6.614,-6.6203,-6.6225,-6.6252,-6.6273,-6.6347,-6.6388,-6.6393,-6.6412,-6.6459,-6.6503,-6.6503,-6.6522,-6.6554,-6.6549,-6.6413,-6.6394,-6.6375,-6.6356,-6.6558,-6.6558,-6.6691,-6.6692,-6.6693]}]]